Location: Crescent
(42.8242°N, 73.7329°W)
Time: 13:26:16
(UTC+00:00)

Transit 2A - Pass Details

Date: 04 November 2024
Orbit: 592 x 956 km, 66.7° (Epoch: 02 December)

Event Time Altitude Azimuth Distance (km) Brightness Sun altitude
Rises 10:30:27 0° 186° (S) 3,545 9.5 -12.0°
Reaches altitude 10° 10:33:04 10° 179° (S) 2,637 8.9 -11.5°
Maximum altitude 10:38:50 41° 111° (ESE) 1,357 8.0 -10.5°
Drops below altitude 10° 10:44:41 10° 44° (NE) 2,685 9.3 -9.4°
Sets 10:47:22 0° 38° (NE) 3,616 9.8 -8.9°
